Home > Weather > Mackay > Past weeks

Flag for Australia Past Weather in Mackay, Queensland, Australia — Yesterday and Last 2 Weeks

Now
52 °F

Cool.


Feels Like: 49 °F
Forecast: 55 / 70 °F
Wind: 8 mph from Southwest

Location: Mackay Mo

Current Time: Aug 28, 2016 at 3:09:42 AM

Latest Report: Aug 28, 2016 at 1:00 AM


Visibility: N/A

Pressure: 30.17 "Hg

Humidity: 79%

Dew Point: 46 °F

Location of MackayLocation

Past Weather in Mackay — Graph

°F

Mackay Temperature Yesterday

Maximum temperature yesterday: 66 °F (at 3:00 PM)
Minimum temperature yesterday: 53 °F (at 4:00 AM)
Average temperature yesterday: 60 °F

High & Low Weather Summary for the Past Weeks

 TemperatureHumidityPressure
High82 °F (Aug 24, 12:00 PM)99% (Aug 13, 6:00 AM)30.24 "Hg (Aug 13, 6:00 AM)
Low52 °F (Aug 28, 1:00 AM)48% (Aug 27, 1:00 PM)29.75 "Hg (Aug 24, 4:00 PM)
Average67 °F82%30.05 "Hg
* Reported Aug 13 1:00 AM — Aug 28 1:00 AM, Mackay, Weather by CustomWeather, © 2016

Note: Actual official high and low records may vary slightly from our data, if they occured in-between our weather recording intervals... More about our weather records

Advertising

Mackay Weather History for the Previous 24 Hours

Scroll right to see more
 ConditionsComfort  
Time TempWeatherWind HumidityBarometerVisibility
1:00 AM
Sun, Aug 28
52 °FCool.8 mph79%30.17 "HgN/A
12:00 AM53 °FCool.8 mph69%30.18 "HgN/A
10:00 PM
Sat, Aug 27
57 °FCool.7 mph81%30.17 "HgN/A
9:00 PM61 °FRefreshingly cool.8 mph57%30.16 "HgN/A
7:00 PM63 °FMild.7 mph58%30.14 "HgN/A
6:00 PM63 °FMild.7 mph56%30.13 "HgN/A
4:00 PM65 °FMild.9 mph52%30.09 "HgN/A
3:00 PM66 °FMild.10 mph52%30.10 "HgN/A
1:00 PM65 °FMild.9 mph48%30.14 "HgN/A
12:00 PM65 °FMild.12 mph49%30.16 "HgN/A
10:00 AM63 °FMild.15 mph51%30.19 "HgN/A
9:00 AM61 °FRefreshingly cool.17 mph51%30.19 "HgN/A
7:00 AM58 °FRefreshingly cool.16 mph51%30.17 "HgN/A
6:00 AM57 °FRefreshingly cool.16 mph54%30.15 "HgN/A
4:00 AM53 °FCool.10 mph77%30.11 "HgN/A
3:00 AM54 °FCool.10 mph74%30.09 "HgN/A
Weather by CustomWeather, © 2016

See weather overviewHow to use our weather pages